GFSFLT1_prec_cthk_219.txt.gz
RH
6 6 7 8 10 12 11 12 12 16 20 24 26 26 27 26 26 26 27 28 30 34 37 40 45 44 43 43 43 45 45 45
6 6 6 5 6 8 7 11 12 14 18 21 23 24 26 27 27 28 28 30 32 33 36 39 43 46 48 49 51 53 54 57
5 6 6 6 6 6 8 9 13 14 15 16 20 22 24 26 28 28 28 32 36 37 37 39 43 45 50 53 55 58 59 60
6 6 7 7 7 7 8 8 10 14 16 17 18 21 24 25 25 27 28 33 40 44 44 44 46 47 48 54 58 68 64 67
7 7 7 7 6 7 7 7 9 11 15 15 16 16 18 21 23 24 27 33 40 46 50 51 51 55 53 53 59 63 63 66
6 6 7 7 6 6 6 6 8 10 12 14 15 18 20 22 22 25 30 34 39 47 53 55 59 61 60 60 60 63 67 66
6 6 7 7 6 6 7 7 7 9 12 12 15 17 18 19 21 25 31 35 40 46 54 60 67 69 68 66 67 67 67 76
7 6 7 7 7 7 7 7 7 8 10 14 15 16 16 17 20 25 31 36 40 48 55 63 67 69 72 71 72 73 74 78
7 7 6 6 7 8 8 7 8 10 12 13 14 14 15 16 20 24 29 34 39 47 54 60 63 62 71 76 76 76 72 76
5 5 5 6 7 9 8 8 10 12 14 13 14 13 13 14 17 22 27 33 38 43 48 54 60 60 64 69 74 75 76 77
6 5 6 7 8 10 11 12 13 14 13 13 13 13 14 14 17 21 25 32 39 45 42 51 53 56 61 64 72 76 76 78
6 6 7 9 12 15 15 17 16 16 15 14 14 14 13 14 17 21 27 34 37 42 40 53 55 60 64 67 71 77 79 80
9 9 10 12 15 19 19 19 17 16 14 14 12 13 13 13 17 22 26 31 36 40 44 48 48 52 58 61 69 77 80 89
15 16 16 17 20 22 22 21 20 17 14 13 11 11 12 12 14 18 23 26 33 38 39 44 50 56 61 65 71 75 76 85
20 27 25 26 28 28 27 25 21 17 15 13 11 11 13 14 16 18 23 27 34 39 42 47 52 59 66 73 76 81 83 86
21 27 33 31 31 30 30 28 25 20 18 15 14 14 13 15 18 20 23 28 35 37 45 53 62 69 74 79 83 88 88 84
21 25 25 30 33 31 27 26 26 22 19 19 18 18 15 17 22 26 28 32 37 45 55 61 68 75 82 84 85 82 80 77
22 22 28 27 25 26 29 28 28 26 26 23 22 20 19 21 27 32 34 40 43 50 60 70 76 78 78 80 81 78 73 68
22 21 20 25 30 31 35 40 42 37 32 27 25 24 27 32 33 36 42 47 47 55 62 72 74 75 76 79 75 68 64 63

GFSFLT1_prec_cthk_222.txt.gz
RH
8 8 9 9 11 13 14 14 16 20 22 23 23 25 25 26 26 26 27 27 29 30 31 34 39 41 42 43 43 42 41 44
8 6 5 6 9 11 12 13 14 17 20 20 20 20 23 25 26 26 26 28 30 30 31 34 38 41 44 46 48 50 50 50
6 5 5 5 5 7 8 9 10 12 16 16 19 20 23 27 27 26 26 27 28 31 33 35 37 41 44 47 50 52 54 58
6 6 5 5 5 5 6 6 7 8 11 15 18 20 21 23 23 24 25 29 30 32 35 38 40 43 43 47 52 54 56 61
6 6 6 6 6 6 6 7 7 8 9 12 15 16 16 16 18 22 25 28 30 34 38 41 45 49 51 51 57 58 62 64
6 6 6 7 7 7 6 7 7 8 8 9 12 15 16 16 18 22 24 24 29 34 38 43 46 51 58 62 63 65 65 68
6 6 6 7 7 7 6 6 6 7 7 8 10 13 15 15 17 19 19 22 26 32 37 41 46 52 58 64 68 68 71 72
6 6 8 8 7 7 7 6 7 7 7 7 8 12 15 15 16 16 17 21 24 28 32 37 44 55 65 66 68 70 72 74
7 7 8 8 8 7 7 7 7 8 7 7 9 13 14 15 15 15 17 20 24 29 32 37 42 52 58 63 64 67 71 73
7 8 8 8 7 7 6 7 9 8 8 8 9 12 14 14 13 14 17 19 23 28 33 37 41 43 50 59 60 63 67 72
7 8 7 6 6 6 5 8 9 8 8 9 11 13 15 13 13 15 15 17 21 26 31 34 38 40 46 52 56 60 61 67
8 7 7 7 6 5 5 8 10 10 10 12 13 14 14 14 14 14 14 16 20 24 29 33 42 38 40 49 52 57 62 63
10 11 11 10 7 7 7 9 12 14 14 16 15 14 14 14 13 14 14 16 19 22 26 32 34 36 38 48 51 54 61 65
16 15 14 17 12 11 11 15 17 18 19 16 16 16 16 14 14 14 15 18 22 22 23 27 31 36 38 42 51 55 60 72
17 18 16 19 20 18 18 21 23 23 22 19 20 19 16 15 14 15 15 17 18 20 23 26 31 35 40 45 51 58 63 71
19 20 18 18 22 24 28 30 30 28 26 23 21 18 18 19 19 18 18 19 22 25 27 30 31 35 39 47 56 63 71 81
23 22 19 18 23 30 38 39 37 33 29 26 23 23 22 23 22 23 24 22 24 28 31 34 36 38 44 52 58 66 76 81
21 23 21 21 25 28 34 41 43 40 35 33 31 29 28 29 27 29 28 26 26 32 35 37 43 44 49 53 64 70 74 78
21 23 25 23 23 26 31 33 36 43 44 38 33 35 37 38 35 34 32 35 34 36 39 43 45 48 55 58 65 69 73 72

GFSFLT1_prec_cthk_228.txt.gz
RH
15 15 16 16 17 17 16 13 12 13 15 17 21 23 23 24 26 25 25 25 25 24 25 27 28 31 33 34 36 37 37 39
14 16 14 14 14 15 17 15 13 13 14 15 17 18 20 22 24 26 26 25 26 26 26 27 27 29 31 35 37 38 42 44
11 11 11 13 12 13 13 12 12 12 14 15 16 17 22 23 25 26 24 26 26 25 25 26 27 29 32 34 37 43 45 47
11 11 11 11 10 10 12 12 10 9 10 13 19 22 22 24 23 22 22 24 26 26 24 25 26 28 31 33 35 38 46 49
9 10 10 9 8 8 7 9 8 9 10 14 13 12 14 13 16 19 22 22 24 26 26 25 26 27 30 33 35 38 42 49
6 6 7 7 7 6 6 6 8 12 10 9 10 11 10 12 17 18 19 20 20 22 23 25 26 27 29 33 37 36 41 47
5 5 5 6 6 6 5 5 6 9 12 7 8 7 8 13 13 15 17 18 18 19 20 22 24 25 26 29 33 35 37 44
7 5 5 5 5 5 5 6 6 6 7 7 7 7 7 9 11 12 15 16 18 18 19 20 22 23 25 27 30 33 37 41
8 7 6 6 6 6 6 6 7 7 7 8 7 7 8 8 12 14 12 14 16 19 20 21 21 22 23 26 28 31 35 39
8 9 7 7 7 7 7 7 8 8 7 8 7 8 8 8 9 11 13 14 17 18 20 21 20 21 23 24 26 29 33 39
13 11 10 9 8 8 8 9 9 9 9 9 9 8 9 9 12 13 13 13 15 18 20 19 20 21 23 24 27 29 33 34
21 21 13 11 11 11 9 9 10 10 9 9 9 9 9 11 15 15 13 13 16 18 19 17 18 20 22 25 27 30 31 32
20 20 23 16 13 13 13 11 11 11 10 10 10 10 11 15 17 16 14 14 17 19 17 17 17 18 21 24 27 27 29 30
22 21 20 25 20 15 15 15 13 14 12 11 13 14 16 17 19 17 16 17 20 20 17 15 15 17 19 21 24 26 26 28
19 21 22 22 26 22 18 16 14 16 17 15 15 16 18 18 18 21 19 19 20 18 15 15 15 18 20 22 23 26 28 27
22 24 24 24 22 24 25 23 17 20 22 20 18 18 19 21 23 24 22 21 19 17 16 17 19 22 23 25 26 27 26 27
26 25 25 27 27 25 24 29 24 18 25 27 25 22 22 24 26 28 23 22 20 19 20 20 23 26 29 29 29 30 32 32
31 27 28 28 29 25 24 26 30 25 25 33 32 30 30 30 30 31 27 26 24 23 25 27 29 32 35 36 36 37 38 40
36 34 34 32 30 29 27 25 27 31 29 30 37 38 37 38 38 36 33 31 26 28 31 33 36 38 43 45 46 47 45 44

GFSFLT1_prec_cthk_231.txt.gz
RH
27 24 23 22 22 20 20 16 15 16 19 20 21 23 25 27 28 28 28 27 24 24 26 26 27 28 29 30 32 33 33 37
28 26 25 23 24 22 20 18 16 17 18 17 17 18 20 23 26 27 28 27 26 24 25 25 25 26 27 29 31 33 36 38
22 26 25 25 24 23 23 19 17 16 17 17 17 17 18 20 23 25 26 26 27 26 24 24 25 25 26 28 30 33 35 37
18 16 22 23 22 21 22 19 19 17 17 19 20 20 21 20 20 21 23 23 24 24 24 26 25 24 25 26 28 30 35 37
15 15 15 14 14 16 18 20 20 17 16 18 17 18 18 16 15 15 20 22 23 24 24 25 27 27 25 25 27 29 33 35
12 13 15 14 14 13 12 13 17 18 17 13 15 16 14 15 18 19 18 20 20 22 23 25 25 28 27 28 29 30 33 35
10 10 10 11 12 13 12 11 8 9 14 13 11 13 13 14 16 15 16 17 19 19 21 22 24 26 27 27 29 31 32 34
9 10 10 8 7 8 9 10 7 6 8 12 11 11 10 12 14 15 16 16 17 16 16 17 18 20 24 27 27 29 31 31
11 9 9 9 8 8 7 7 6 5 6 10 13 12 12 13 13 15 15 15 15 16 15 17 17 19 22 25 26 27 29 31
14 12 11 10 9 10 9 8 8 8 7 8 12 14 13 13 12 14 15 16 17 16 15 16 18 19 21 22 23 23 27 29
19 17 15 14 12 11 11 9 9 8 8 9 9 12 12 11 14 15 15 16 16 18 16 15 17 19 21 22 20 22 26 27
23 24 22 19 17 16 16 14 12 11 11 10 10 9 10 10 11 14 14 15 17 18 18 16 17 19 21 21 18 21 24 26
26 27 27 26 27 25 22 20 18 15 14 13 12 11 11 12 12 12 14 16 18 19 21 21 22 24 24 20 18 20 23 27
25 23 23 24 24 28 29 29 23 20 17 17 16 14 13 15 15 15 15 17 19 21 23 23 24 26 22 19 20 20 24 27
26 24 26 26 25 24 23 24 29 26 22 19 20 18 18 18 19 20 20 20 21 23 24 23 26 26 20 20 20 20 24 27
33 27 28 28 29 27 24 24 24 26 25 24 21 21 21 23 24 25 25 27 25 25 27 26 28 27 20 19 18 21 25 27
46 34 33 30 28 25 24 23 24 25 27 28 26 25 26 26 28 29 30 31 30 32 32 28 28 22 19 18 20 24 28 29
45 47 35 37 34 27 25 26 23 24 25 29 31 34 34 35 31 33 35 38 35 34 32 29 25 21 20 21 26 31 30 31
43 42 45 40 37 32 25 23 25 24 23 28 30 31 37 47 41 38 43 43 41 39 35 32 26 25 24 27 31 35 36 39